Weather History for KAPY - March, 2013

Change the Weather History Date:

Tuesday, March 5, 2013

  Actual Average (KLRD) Record (KLRD)
Temperature  
Mean Temperature 58 °F 66 °F  
Max Temperature 72 °F 77 °F 103 °F (1916)
Min Temperature 45 °F 54 °F 29 °F (1917)
Degree Days  
Heating Degree Days 6 4  
Month to date heating degree days 20  
Since 1 July heating degree days 864  
Cooling Degree Days 0 4  
Month to date cooling degree days 19  
Year to date cooling degree days 104  
Growing Degree Days 8 (Base 50)    
Moisture  
Dew Point 35 °F    
Average Humidity 42    
Maximum Humidity 91    
Minimum Humidity 16    
Precipitation  
Precipitation 0.00 in 0.04 in 0.91 in (2005)
Month to date precipitation 0.21  
Year to date precipitation 2.05  
Sea Level Pressure  
Sea Level Pressure 30.13 in    
Wind  
Wind Speed 10 mph (NNE)    
Max Wind Speed 29 mph    
Max Gust Speed 43 mph    
Visibility 10 miles    
Events      
T = Trace of Precipitation, MM = Missing Value Source: NWS Daily Summary

Daily Weather History Graph

Daily Weather History Graph

Search for Another Location

Airport or City:

Trip Planner

Search our weather history database for the weather conditions in past years. The results will help you decide how hot, cold, wet, or windy it might be!

Date:

Astronomy

Mar. 05, 2013 Rise Set
Actual Time 6:56 AM CST 6:40 PM CST
Civil Twilight 6:33 AM CST 7:03 PM CST
Nautical Twilight 6:06 AM CST 7:30 PM CST
Astronomical Twilight 5:39 AM CST 7:57 PM CST
Moon 1:47 AM CST (3/5) 12:44 PM CST (3/5)
Length of Visible Light 12h 30m
Length of Day
11h 43m
Last Quarter, 40% of the Moon is Illuminated
Mar 5
Last Quarter
Mar 11
New
Mar 19
First Quarter
Mar 27
Full
Apr 2
Last Quarter

Hourly Weather History & Observations

Time (CST) Temp. Dew Point Humidity Pressure Visibility Wind Dir Wind Speed Gust Speed Precip Events Conditions
12:35 AM 65.8 °F 54.7 °F 67% 29.79 in 10.0 mi ESE 6.9 mph - N/A   Clear
12:55 AM 64.8 °F 54.9 °F 70% 29.79 in 10.0 mi ESE 6.9 mph - N/A   Clear
1:15 AM 64.4 °F 55.0 °F 72% 29.79 in 10.0 mi SE 6.9 mph - N/A   Clear
1:35 AM 63.9 °F 55.0 °F 73% 29.79 in 10.0 mi SE 8.1 mph - N/A   Clear
1:55 AM 63.5 °F 54.9 °F 73% 29.79 in 10.0 mi SE 8.1 mph - N/A   Clear
2:15 AM 63.0 °F 54.9 °F 75% 29.79 in 10.0 mi SE 8.1 mph - N/A   Clear
2:35 AM 62.8 °F 54.7 °F 75% 29.79 in 10.0 mi SE 8.1 mph - N/A   Clear
2:55 AM 61.9 °F 54.5 °F 77% 29.79 in 10.0 mi SE 6.9 mph - N/A   Clear
3:15 AM 61.5 °F 54.1 °F 77% 29.79 in 10.0 mi SE 8.1 mph - N/A   Clear
3:35 AM 60.8 °F 54.0 °F 78% 29.79 in 10.0 mi SE 8.1 mph - N/A   Clear
3:55 AM 60.6 °F 54.0 °F 79% 29.79 in 10.0 mi SE 5.8 mph - N/A   Clear
4:15 AM 60.4 °F 54.0 °F 79% 29.79 in 10.0 mi SE 6.9 mph - N/A   Clear
4:55 AM 59.5 °F 53.6 °F 81% 29.81 in 10.0 mi SSE 4.6 mph - N/A   Clear
5:15 AM 59.0 °F 53.2 °F 81% 29.82 in 10.0 mi Calm Calm - N/A   Clear
5:35 AM 58.1 °F 53.4 °F 84% 29.82 in 10.0 mi SSE 3.5 mph - N/A   Clear
7:15 AM 55.8 °F 53.2 °F 91% 29.95 in 10.0 mi North 8.1 mph - N/A   Clear
7:35 AM 58.1 °F 54.5 °F 88% 29.99 in 10.0 mi North 10.4 mph - N/A   Clear
7:55 AM 60.6 °F 54.3 °F 80% 30.01 in 10.0 mi NNE 9.2 mph - N/A   Clear
8:15 AM 63.1 °F 54.5 °F 73% 30.04 in 10.0 mi North 10.4 mph - N/A   Clear
8:35 AM 65.1 °F 54.0 °F 67% 30.08 in 10.0 mi North 20.7 mph 32.2 mph N/A   Mostly Cloudy
8:55 AM 63.5 °F 49.8 °F 61% 30.10 in 10.0 mi North 27.6 mph 38.0 mph N/A   Overcast
9:15 AM 62.8 °F 40.8 °F 45% 30.15 in 7.0 mi North 27.6 mph 36.8 mph N/A   Overcast
9:35 AM 61.9 °F 37.9 °F 41% 30.18 in 10.0 mi North 28.8 mph 42.6 mph N/A   Overcast
9:55 AM 61.7 °F 36.3 °F 39% 30.21 in 10.0 mi North 25.3 mph 34.5 mph N/A   Overcast
10:15 AM 61.7 °F 34.7 °F 36% 30.24 in 10.0 mi NNW 24.2 mph 31.1 mph N/A   Overcast
10:35 AM 61.3 °F 33.3 °F 35% 30.25 in 10.0 mi North 20.7 mph 33.4 mph N/A   Overcast
10:55 AM 62.6 °F 32.2 °F 32% 30.25 in 10.0 mi North 23.0 mph 32.2 mph N/A   Overcast
11:15 AM 64.4 °F 32.0 °F 30% 30.27 in 10.0 mi NNW 19.6 mph 31.1 mph N/A   Scattered Clouds
11:35 AM 66.4 °F 31.3 °F 27% 30.28 in 10.0 mi North 21.9 mph 27.6 mph N/A   Clear
11:55 AM 67.3 °F 30.6 °F 25% 30.28 in 10.0 mi North 16.1 mph 27.6 mph N/A   Clear
12:15 PM 68.4 °F 29.8 °F 24% 30.28 in 10.0 mi North 20.7 mph 29.9 mph N/A   Clear
12:35 PM 67.6 °F 29.3 °F 24% 30.27 in 10.0 mi NNW 23.0 mph 32.2 mph N/A   Clear
12:55 PM 69.1 °F 28.6 °F 22% 30.27 in 10.0 mi NNW 20.7 mph 27.6 mph N/A   Clear
1:15 PM 69.6 °F 27.9 °F 21% 30.26 in 10.0 mi North 16.1 mph 26.5 mph N/A   Clear
1:35 PM 70.3 °F 27.5 °F 20% 30.25 in 10.0 mi North 16.1 mph 24.2 mph N/A   Clear
1:55 PM 70.9 °F 27.3 °F 20% 30.25 in 10.0 mi North 16.1 mph 24.2 mph N/A   Clear
2:15 PM 72.7 °F 26.4 °F 18% 30.24 in 10.0 mi North 12.7 mph 18.4 mph N/A   Clear
2:35 PM 72.1 °F 25.7 °F 18% 30.24 in 10.0 mi North 17.3 mph 20.7 mph N/A   Clear
2:55 PM 72.7 °F 25.0 °F 17% 30.23 in 10.0 mi North 13.8 mph 32.2 mph N/A   Clear
3:15 PM 71.8 °F 24.8 °F 17% 30.23 in 10.0 mi NNW 11.5 mph 25.3 mph N/A   Clear
3:35 PM 72.1 °F 24.6 °F 17% 30.23 in 10.0 mi North 13.8 mph 21.9 mph N/A   Clear
3:55 PM 71.6 °F 24.8 °F 17% 30.23 in 10.0 mi NW 15.0 mph 23.0 mph N/A   Clear
4:15 PM 72.7 °F 24.4 °F 16% 30.24 in 10.0 mi NNW 17.3 mph 20.7 mph N/A   Clear
4:35 PM 72.1 °F 23.9 °F 16% 30.24 in 10.0 mi North 12.7 mph 17.3 mph N/A   Clear
4:55 PM 71.6 °F 23.9 °F 17% 30.23 in 10.0 mi North 12.7 mph 17.3 mph N/A   Clear
5:15 PM 70.9 °F 23.7 °F 17% 30.23 in 10.0 mi North 11.5 mph 19.6 mph N/A   Clear
5:35 PM 71.2 °F 23.5 °F 17% 30.24 in 10.0 mi North 10.4 mph 18.4 mph N/A   Clear
5:55 PM 70.7 °F 23.4 °F 17% 30.24 in 10.0 mi North 10.4 mph - N/A   Clear
6:15 PM 69.8 °F 23.0 °F 17% 30.25 in 10.0 mi North 6.9 mph - N/A   Clear
6:35 PM 68.7 °F 23.2 °F 18% 30.25 in 10.0 mi North 5.8 mph - N/A   Clear
6:55 PM 66.7 °F 23.5 °F 19% 30.25 in 10.0 mi NNE 3.5 mph - N/A   Clear
7:15 PM 65.5 °F 23.9 °F 21% 30.26 in 10.0 mi North 3.5 mph - N/A   Clear
7:35 PM 63.0 °F 24.4 °F 23% 30.27 in 10.0 mi Calm Calm - N/A   Clear
7:55 PM 59.4 °F 25.0 °F 27% 30.27 in 10.0 mi NNE 3.5 mph - N/A   Clear
8:15 PM 60.1 °F 24.8 °F 26% 30.28 in 10.0 mi North 3.5 mph - N/A   Clear
8:35 PM 59.2 °F 24.4 °F 26% 30.28 in 10.0 mi North 3.5 mph - N/A   Clear
8:55 PM 59.9 °F 23.9 °F 25% 30.29 in 10.0 mi NNE 3.5 mph - N/A   Clear
9:15 PM 54.1 °F 22.8 °F 30% 30.30 in 10.0 mi Calm Calm - N/A   Clear
9:35 PM 50.0 °F 22.8 °F 34% 30.30 in 10.0 mi Calm Calm - N/A   Clear
9:55 PM 53.4 °F 23.7 °F 32% 30.31 in 10.0 mi Calm Calm - N/A   Clear
10:15 PM 50.0 °F 23.7 °F 36% 30.31 in 10.0 mi Calm Calm - N/A   Clear
10:35 PM 50.4 °F 23.9 °F 36% 30.31 in 10.0 mi Calm Calm - N/A   Clear
10:55 PM 45.7 °F 22.3 °F 40% 30.32 in 10.0 mi Calm Calm - N/A   Clear
11:15 PM 46.0 °F 22.8 °F 40% 30.31 in 10.0 mi Calm Calm - N/A   Clear
11:35 PM 48.6 °F 23.7 °F 38% 30.31 in 10.0 mi Calm Calm - N/A   Clear
11:55 PM 46.8 °F 23.2 °F 40% 30.31 in 10.0 mi Calm Calm - N/A   Clear